Regional Weather Roundup
Issued by NWS

Home | Current Version | Previous Version | Graphics & Text | Print | Product List | Glossary Off
Versions: 1 2 3 4 5 6 7 8 9 10 11 12 13 14 15 16 17 18 19 20 21 22 23 24 25 26 27 28 29 30 31 32 33 34 35 36 37 38 39 40 41 42 43 44 45 46 47 48 49 50

000
ASUS44 KMEG 240410
RWRTN
TENNESSEE HOURLY STATE WEATHER ROUNDUP
NATIONAL WEATHER SERVICE MEMPHIS TN
1100 PM CDT MON OCT 23 2017

TNZ002-004-019-021-049-052-054-088>092-240500-
WEST TENNESSEE

CITY           SKY/WX    TMP DP  RH WIND       PRES   REMARKS
MEMPHIS INTL   CLEAR     62  47  57 NW10      29.97R
NWS MEMPHIS      N/A     61 N/A N/A MISG        N/A
JACKSON        CLEAR     60  47  61 W12       29.91R
DYERSBURG        N/A     60  47  61 W7        29.92R
SOMERVILLE     CLEAR     59  46  63 W5        29.93R
COVINGTON      CLEAR     61  46  59 W9        29.94R
UNION CITY     MOCLDY    61  48  63 W5        29.88R
BOLIVAR        CLEAR     59  46  63 SW8G16    29.92R
PARIS          CLOUDY    57  46  67 W9        29.86R
HUNTINGDON     MOCLDY    57  46  67 W7        29.86S
LEXINGTON      CLEAR     54  46  76 SW10      29.89S
SELMER         CLEAR     55  45  67 SW9G16    29.91S
SAVANNAH       CLEAR     57  45  62 S9        29.91F
$$

TNZ008-025-027-028-033-062-065-066-240500-
NORTH MIDDLE TENNESSEE

CITY           SKY/WX    TMP DP  RH WIND       PRES   REMARKS
NASHVILLE      CLEAR     50  46  86 S7        29.89F
PORTLAND       CLEAR     50  48  93 S9        29.85F
CLARKSVILLE    CLOUDY    55  46  71 S12       29.82F
COOKEVILLE     CLEAR     46  46 100 SE3       29.93S
CROSSVILLE     CLEAR     47  45  93 VRB7      29.96R
$$

TNZ061-075-076-078-094-096-097-240500-
SOUTH MIDDLE TENNESSEE

CITY           SKY/WX    TMP DP  RH WIND       PRES   REMARKS
FAYETTEVILLE   CLEAR     50  48  93 S6        29.94F
TULLAHOMA      CLEAR     46  46 100 S5        29.95F
WINCHESTER     CLEAR     46  46 100 SE3         N/A
COLUMBIA       PTCLDY    52  46  82 S8        29.89F
SHELBYVILLE    CLEAR     48  46  93 S3        29.92F
$$

TNZ017-018-042-046-047-240500-
NORTHEAST TENNESSEE

CITY           SKY/WX    TMP DP  RH WIND       PRES   REMARKS
TRI CITIES     MOCLDY    55  53  93 SW12      29.88F
ELIZABETHTON   CLOUDY    57  50  77 W12       29.88F
$$

TNZ012-013-036-069-073-074-240500-
CENTRAL EAST TENNESSEE

CITY           SKY/WX    TMP DP  RH WIND       PRES   REMARKS
KNOXVILLE      PTCLDY    54  50  86 SW10      29.93S
OAK RIDGE      CLEAR     52  48  86 VRB3      29.94S
DOWNTOWN KNOXV CLEAR     55  48  76 W10       29.94R
GATLINBURG     MOCLDY    55  50  82 SW10G17   29.92S
MORRISTOWN     MOCLDY    54  50  87 W10       29.90S
JACKSBORO      CLEAR     52  43  71 SW5       29.94F
$$

TNZ083-085-099-240500-
SOUTHEAST TENNESSEE

CITY           SKY/WX    TMP DP  RH WIND       PRES   REMARKS
CHATTANOOGA    CLEAR     53  48  83 S3        29.98R
DAYTON         CLEAR     50  50 100 S3        29.95R
$$

SKY/WX REPORTED AS FAIR MEANS FEW OR NO CLOUDS BELOW
12 THOUSAND FEET.





USA.gov is the U.S. government's official web portal to all federal, state and local government web resources and services.